sat.trackr.live / text

‹ back to catalog

STARLINK-31311

NORAD 58948 · 2024-027T

PAYLOAD ACTIVE UNKNOWN

§ Identity

Operator
Country
US
Launch date
2024-02-10
Launch site
AFWTR
Launch vehicle
Mass (kg)
RCS (m²)

Purposes: comms

External: N2YO · Heavens-Above · Gunter

§ Orbital elements

Epoch: 2026-05-25T04:46:57.485280Z

Period
94.11 min
Inclination
53.1610°
Eccentricity
0.0001270
Mean motion
15.30194146 rev/d
Perigee alt
474.4 km
Apogee alt
476.1 km
Semi-major
6,853.4 km
B*
4.1753e-5
RAAN
312.0214°
Arg perigee
84.8125°
Mean anomaly
275.3021°
Rev number
12,907

§ Raw data

STARLINK-313111 58948U 24027T   26145.19927645  .00000877  00000+0  41753-4 0  99952 58948  53.1610 312.0214 0001270  84.8125 275.3021 15.30194146129076

JSON: /api/v1/satellites/58948 · /tle

For live sub-satellite position, see the globe view (requires WebGL).

§ Visibility from observer

Set your observer location to see the next 7 days of passes ≥ 10°. The values pass through the URL so the page stays shareable.

No JS? Fill the form by hand. The geolocation button needs JavaScript.